Flag for Austria Weather past 2 weeks in Klagenfurt, Carinthia, Austria

Now
59 °F

Partly sunny.


Feels Like: 59 °F
Forecast: 55 / 66 °F
Wind: 1 mph from North

Location: Klagenfurt-Flughafen

Current Time: Sep 16, 2014 at 9:47:24 AM

Latest Report: Sep 16, 2014 at 8:50 AM


Visibility: 4 mi

Pressure: 30.09 "Hg

Humidity: 94%

Dew point: 57 °F

Location of KlagenfurtLocation

Historic Weather in Klagenfurt — Graph

°F

Klagenfurt temperature yesterday

Maximum temperature yesterday: 68 °F (at 3:50 PM)
Minimum temperature yesterday: 55 °F (at 12:20 AM)
Average temperature yesterday: 60 °F

Past Weeks' High & Low Weather Summary

 TemperatureHumidityPressure
High77 °F (Sep 8, 4:50 PM)100% (Sep 1, 8:50 AM)30.09 "Hg (Sep 1, 8:50 AM)
Low50 °F (Sep 1, 8:20 AM)47% (Sep 8, 4:50 PM)29.89 "Hg (Sep 12, 12:50 AM)
Average60 °F89%30.02 "Hg
* Reported Sep 1 8:20 AM — Sep 16 8:50 AM, Klagenfurt, Weather by CustomWeather, © 2014

Note: Actual official high and low records may vary slightly from our data, if they occured in-between our weather recording intervals... More about our weather records

Advertising

Klagenfurt weather history for previous 24 hours

 ConditionsComfort  
Time TempWeatherWind HumidityBarometerVisibility
8:50 AM
Sep 16
59 °FPartly sunny.1 mph94%30.09 "Hg4 mi
8:20 AM59 °FPartly sunny.1 mph88%30.09 "Hg4 mi
7:50 AM57 °FPartly sunny.2 mph94%30.07 "Hg4 mi
7:20 AM57 °FPartly cloudy.2 mph94%30.07 "Hg4 mi
6:50 AM57 °FPartly cloudy.1 mph94%30.07 "Hg4 mi
6:20 AM57 °FPassing clouds.2 mph94%30.07 "HgN/A
5:50 AM57 °FPassing clouds.1 mph94%30.07 "HgN/A
5:20 AM57 °FPassing clouds.2 mph94%30.07 "HgN/A
4:50 AM57 °FPassing clouds.1 mph94%30.07 "HgN/A
4:20 AM57 °FPassing clouds.2 mph94%30.07 "HgN/A
3:50 AM57 °FPassing clouds.1 mph94%30.07 "HgN/A
3:20 AM55 °FPassing clouds.1 mph100%30.07 "HgN/A
2:50 AM55 °FPassing clouds.1 mph100%30.07 "HgN/A
2:20 AM57 °FPassing clouds.2 mph94%30.07 "HgN/A
1:50 AM57 °FPassing clouds.2 mph94%30.07 "HgN/A
1:20 AM57 °FOvercast.2 mph94%30.07 "HgN/A
12:50 AM57 °FPassing clouds.2 mph94%30.07 "HgN/A
12:20 AM57 °FPassing clouds.2 mph94%30.07 "HgN/A
11:50 PM
Sep 15
59 °FPartly cloudy.2 mph88%30.07 "HgN/A
11:20 PM57 °FPassing clouds.1 mph94%30.07 "HgN/A
10:50 PM57 °FPassing clouds.2 mph88%30.07 "HgN/A
10:20 PM61 °FPassing clouds.2 mph83%30.07 "HgN/A
9:50 PM61 °FPartly cloudy.3 mph83%30.07 "HgN/A
9:20 PM61 °FPartly cloudy.3 mph83%30.07 "HgN/A
8:50 PM63 °FPassing clouds.6 mph77%30.07 "HgN/A
8:20 PM63 °FPartly cloudy.6 mph77%30.04 "HgN/A
7:50 PM63 °FBroken clouds.5 mph77%30.04 "HgN/A
7:20 PM63 °FPartly sunny.5 mph77%30.04 "HgN/A
6:50 PM64 °FBroken clouds.5 mph73%30.04 "HgN/A
6:20 PM64 °FBroken clouds.7 mph73%30.04 "HgN/A
5:50 PM66 °FPartly sunny.6 mph68%30.04 "HgN/A
5:20 PM66 °FScattered clouds.6 mph68%30.01 "HgN/A
4:50 PM66 °FPassing clouds.7 mph68%30.01 "HgN/A
4:20 PM68 °FPassing clouds.7 mph64%30.01 "HgN/A
3:50 PM68 °FScattered clouds.7 mph64%30.04 "HgN/A
3:20 PM66 °FScattered clouds.7 mph68%30.04 "HgN/A
2:50 PM66 °FScattered clouds.7 mph68%30.04 "HgN/A
2:20 PM66 °FScattered clouds.5 mph68%30.04 "HgN/A
1:50 PM66 °FBroken clouds.3 mph68%30.04 "HgN/A
1:20 PM66 °FScattered clouds.2 mph68%30.07 "HgN/A
12:50 PM64 °FScattered clouds.2 mph73%30.07 "HgN/A
12:20 PM64 °FScattered clouds.5 mph73%30.07 "HgN/A
11:50 AM63 °FPartly sunny.5 mph73%30.09 "HgN/A
11:20 AM63 °FPartly sunny.3 mph77%30.07 "HgN/A
10:50 AM61 °FPartly sunny.3 mph77%30.09 "HgN/A
10:20 AM59 °FBroken clouds.3 mph82%30.07 "HgN/A
9:50 AM59 °FPartly sunny.6 mph82%30.09 "HgN/A
9:20 AM57 °FPartly sunny.6 mph94%30.07 "HgN/A
Weather by CustomWeather, © 2014

See weather overviewHow to use our weather pages